Watsonville, CA

5:50 PM PDT on September 23, 2017 (GMT -0700)
Watsonville Municipal

Weather History for KWVI - October, 2011

Change the Weather History Date:

Wednesday, October 12, 2011

  Actual Average Record
Temperature  
Mean Temperature 71 °F 61 °F  
Max Temperature 85 °F 73 °F 94 °F (2015)
Min Temperature 57 °F 49 °F 34 °F (2008)
Degree Days  
Heating Degree Days 0    
Month to date heating degree days 41  
Since 1 July heating degree days 252  
Cooling Degree Days 6    
Month to date cooling degree days 9  
Year to date cooling degree days 78  
Growing Degree Days 20 (Base 50)    
Moisture  
Dew Point 57 °F    
Average Humidity 62    
Maximum Humidity 86    
Minimum Humidity 37    
Precipitation  
Precipitation 0.00 in - 0.29 in (1962)
Month to date precipitation 1.92  
Year to date precipitation 20.26  
Since 1 July precipitation 2.08  
Sea Level Pressure  
Sea Level Pressure 30.03 in    
Wind  
Wind Speed 3 mph (WNW)    
Max Wind Speed 6 mph    
Max Gust Speed -    
Visibility 8 miles    
Events      
T = Trace of Precipitation, MM = Missing Value Source: NWS Daily Summary

Daily Weather History Graph

Daily Weather History Graph

Search for Another Location

Airport or City:

Trip Planner

Search our weather history database for the weather conditions in past years. The results will help you decide how hot, cold, wet, or windy it might be!

Date:

Astronomy

Oct. 12, 2011 Rise Set
Actual Time 7:11 AM PDT 6:34 PM PDT
Civil Twilight 6:45 AM PDT 7:00 PM PDT
Nautical Twilight 6:15 AM PDT 7:30 PM PDT
Astronomical Twilight 5:45 AM PDT 8:00 PM PDT
Moon 6:42 PM PDT (10/12) 7:49 AM PDT (10/12)
Length of Visible Light 12h 15m
Length of Day
11h 22m
Full, 100% of the Moon is Illuminated
Oct 12
Full
Oct 19
Last Quarter
Oct 26
New
Nov 2
First Quarter
Nov 10
Full

Hourly Weather History & Observations

Time (PDT) Temp. Heat Index Dew Point Humidity Pressure Visibility Wind Dir Wind Speed Gust Speed Precip Events Conditions
12:07 AM 57.2 °F - 55.4 °F 94% 30.06 in 8.0 mi Calm Calm - N/A   Scattered Clouds
12:16 AM - - - N/A% 30.06 in 7.0 mi Calm Calm - N/A   Mostly Cloudy
12:25 AM - - - N/A% 30.06 in 10.0 mi Calm Calm - 0.01 in   Scattered Clouds
12:53 AM - - - N/A% 30.05 in 9.0 mi Calm Calm - 0.01 in   Scattered Clouds
1:00 AM - - - N/A% 30.05 in 2.5 mi Calm Calm - N/A   Mostly Cloudy
1:09 AM - - - N/A% 30.05 in 1.5 mi North 3.5 mph - N/A   Mostly Cloudy
1:19 AM - - - N/A% 30.05 in 1.0 mi North 3.5 mph - N/A   Mist
1:30 AM - - - N/A% 30.06 in 2.5 mi NW 3.5 mph - N/A   Overcast
1:37 AM - - - N/A% 30.06 in 5.0 mi Calm Calm - N/A   Haze
1:53 AM - - - N/A% 30.06 in 2.5 mi Calm Calm - N/A   Mostly Cloudy
2:01 AM 57.2 °F - 53.6 °F 88% 30.06 in 6.0 mi Calm Calm - N/A   Scattered Clouds
2:53 AM 57.0 °F - 54.0 °F 89% 30.06 in 10.0 mi WNW 4.6 mph - N/A   Clear
3:53 AM - - - N/A% 30.05 in 10.0 mi WNW 3.5 mph - N/A   Clear
4:53 AM - - - N/A% 30.05 in 10.0 mi Calm Calm - N/A   Clear
5:53 AM - - - N/A% 30.05 in 10.0 mi NW 3.5 mph - N/A   Clear
7:53 AM - - - N/A% 30.06 in 10.0 mi Calm Calm - N/A   Clear
8:53 AM 64.0 °F - 59.0 °F 84% 30.08 in 10.0 mi Calm Calm - N/A   Clear
9:53 AM 68.0 °F - 57.9 °F 70% 30.08 in 10.0 mi Calm Calm - N/A   Clear
10:53 AM 73.9 °F - 60.1 °F 62% 30.07 in 10.0 mi Calm Calm - N/A   Clear
2:53 PM 84.0 °F 83.3 °F 57.0 °F 40% 29.97 in 10.0 mi Variable 4.6 mph - N/A   Clear
3:53 PM 84.0 °F 83.3 °F 57.0 °F 40% 29.96 in 10.0 mi WSW 5.8 mph - N/A   Clear
4:53 PM 84.0 °F 82.9 °F 55.0 °F 37% 29.95 in 10.0 mi WSW 3.5 mph - N/A   Clear
5:53 PM 80.1 °F 80.4 °F 57.0 °F 45% 29.94 in 10.0 mi West 3.5 mph - N/A   Clear
7:53 PM 71.1 °F - 60.1 °F 68% 29.95 in 10.0 mi WNW 3.5 mph - N/A   Clear
8:53 PM 68.0 °F - 57.9 °F 70% 29.96 in 10.0 mi WNW 3.5 mph - N/A   Clear
10:53 PM 64.0 °F - 55.9 °F 75% 29.97 in 10.0 mi NW 4.6 mph - N/A   Clear
11:53 PM 63.0 °F - 54.0 °F 72% 29.97 in 10.0 mi WNW 4.6 mph - N/A   Clear